{"data":{"norad_id":53201,"epoch":"2026-09-20T04:00:03.000096Z","epoch_age_seconds":100966,"freshness":"FRESH","line1":"1 53201U 22084N   26263.16670139  .01312195  00000+0  24796-1 0  9999","line2":"2 53201  97.4970 328.8473 0001524  87.5131  85.4320 15.45358173  5864","mean_motion":15.45358173,"eccentricity":0.0001524,"inclination_deg":97.497,"raan_deg":328.8473,"arg_perigee_deg":87.5131,"mean_anomaly_deg":85.432,"bstar":0.024796,"rev_number":586,"period_min":93.182281309228,"perigee_km":429.28824520689,"apogee_km":431.36346468508,"semimajor_km":6808.462854946,"source":"CELESTRAK","updated_at":"2026-09-20T09:00:40.190965Z"}}